Location: Mt. Bigelow
(32.4165°N, 110.7345°W)
Time: 08:59:13
(UTC-07:00)

N. Korean satellite - Visible Passes

Search period start: 22 October 2018 00:00
Search period end: 01 November 2018 00:00
Orbit: 459 x 510 km, 97.2° (Epoch: 21 October)

Date Brightness Start Highest point End Pass type
(mag) Time Alt. Az. Time Alt. Az. Time Alt. Az.
22 Oct 9.9 18:55:38 10° SW 18:58:06 17° W 19:00:37 10° NW visible
23 Oct 8.5 18:30:11 10° SSW 18:33:36 36° W 18:37:04 10° NNW visible
24 Oct 9.5 06:01:59 10° NE 06:04:52 23° E 06:07:40 10° SSE visible
24 Oct 6.7 18:05:28 10° S 18:09:10 84° WSW 18:12:54 10° NNW visible
25 Oct 10.6 05:39:37 10° E 05:40:17 10° E 05:40:56 10° ESE visible
26 Oct 9.7 18:51:06 10° SW 18:53:49 19° W 18:56:33 10° NW visible
27 Oct 8.1 18:25:48 10° S 18:29:19 41° W 18:32:51 10° NNW visible
28 Oct 9.7 05:57:53 10° NE 06:00:31 20° E 06:03:08 10° SE visible
28 Oct 6.6 18:01:10 10° SSE 18:04:53 84° E 18:08:36 10° N visible
29 Oct 10.5 19:13:42 10° W 19:14:04 10° W 19:14:26 10° W visible
30 Oct 9.5 18:46:35 10° SSW 18:49:30 22° W 18:52:25 10° NW visible
31 Oct 7.8 18:21:24 10° S 18:25:00 47° W 18:28:35 10° NNW visible
